CZ-6A DEB

Satellite information

Favourite Embed

Satellite Type and Status

DEBRISIN ORBIT

Key statistics

Satellite CZ-6A DEB at a glance.

Uptime

495

Days in orbit

Revolutions

≈ 14.3

Per day

Orbit

LEO

Low Earth Orbit

Inclination

89.1

Latest

Satellite identification and parameters

Extended collection of information and parameters for CZ-6A DEB.

Object identification

Identified? True

Debris? True

Object name: CZ-6A DEB

International designator: 2024-140ZU

Object number (NORAD): 61462

Object ID (CCSDS): 61462

Country: PEOPLES REPUBLIC OF CHINA (PRC)

Current information (Y/N): Y

RCS size: SMALL

Orbital parameters

Period: 100.861 minutes

Inclination: 89.1201 deg

SMA: 7177.554 km

Apoapsis: 857.359 km

Periapsis: 741.48 km

RAAN: 302.3159 deg

Eccentricy: 0.0080723

Argument of periapsis: 122.4812 deg

Mean anomaly: 238.4219 deg

Mean motion: 14.27703522 rev/day

Mean motion (dot): 0.00007002 rev/day2

B* drag term: 0.0027366 1/REarth

Two-line elements (TLE)

Creation date: Dec. 12, 2025, 7:16 a.m.

Reference frame: TEME

Reference center: EARTH

Epoch: Dec. 11, 2025, 8:38 p.m. UTC

TLE line 0: 0 CZ-6A DEB

TLE line 1: 1 61462U 24140ZU 25345.86015177 .00007002 00000-0 27366-2 0 9999

TLE line 2: 2 61462 89.1201 302.3159 0080723 122.4812 238.4219 14.27703522 64850

Live tracking on map

Real-time ground track for satellite CZ-6A DEB.

In-orbit conjunctions

A list of the most updated potential collisions computed for object CZ-6A DEB.

Target Orbit TCA Probability of collision Miss distance Type
METEOR 2-4 LEO 2025-05-08 16:13:58 0.0001275989 565.0 (m) PAYLOAD
DMSP 5D-2 F14 DEB SSO 2025-02-24 12:27:20 0.0003405519 432.0 (m) DEBRIS
CZ-6A DEB LEO 2025-01-15 07:07:38 0.004303388 45.0 (m) DEBRIS
IRIDIUM 47 DEB LEO 2025-01-14 10:00:35 0.0001993152 669.0 (m) DEBRIS
FENGYUN 1C DEB SSO 2024-11-07 20:31:21 0.0003768398 490.0 (m) DEBRIS

Associated space launch

18 Low Earth Orbit communication satellites with Ku, Q and V band payloads for the G60 constellation operated by Shanghai Spacecom Satellite Technology (SSST) with funding backed by the Shanghai local government. Initial constellation will consist of 1296 satellites by 2027 with long term plans to expand it to 12000 satellites.

CZ-6A DEB was lifted into orbit during the mission ‘Long March 6A | G60 Polar Group 01’, on board a Long March 6A space rocket.

The launch took place on Aug. 6, 2024, 6:42 a.m. from Launch Complex 9A.

For more information about the launch, click the button.

Launch to space Long March 6A | G60 Polar Group 01
Long March 6A | G60 Polar Group 01

Agency: N/A

Status: Launch Successful

Launch date: Aug. 6, 2024, 6:42 a.m. UTC

Rocket: Long March 6A

Launch pad: Launch Complex 9A

Location: Taiyuan Satellite Launch Center, People's Republic of China

...

Latest news about this satellite

News about space launch
Brightness of first Chinese broadband constellation satellites alarms astronomers

The first satellites of a Chinese broadband constellation are significantly brighter than those of Western systems, posing a new challenge for astronomers.

News about space launch
Chinese rocket stage breaks up into cloud of more than 700 pieces of space debris

HELSINKI — A Chinese Long March 6A rocket’s upper stage has fragmented into a cloud of over 700 pieces of space debris, adding to concerns about long-term orbital safety. China […]

News about space launch
China's Thousand Sails Megaconstellation Kicks Off with Dangerous Debris Field

China's Thousand Sails Megaconstellation Kicks Off with Dangerous Debris Field


Newsletter sign-up

Weekly statistics, charts and insights to help you stay on top of the space industry.